Stündliche Wetter Bremen

Heute, 1 August, Sonntag

Zeit Temperatur Niederschläge Wind Luftdruck Luftfeuchtigkeit
00:00 +14°C° 0 mm 4 m/S 755 mmHg 94%
01:00 +14°C° 0 mm 4 m/S 755 mmHg 93%
02:00 +14°C° 0 mm 4 m/S 754 mmHg 94%
03:00 +14°C° 0 mm 3 m/S 754 mmHg 94%
04:00 +14°C° 0 mm 3 m/S 754 mmHg 95%
05:00 +14°C° 0 mm 3 m/S 754 mmHg 94%
06:00 +14°C° 0 mm 3 m/S 755 mmHg 93%
07:00 +14°C° 0 mm 3 m/S 755 mmHg 93%
08:00 +17°C° 0.2 mm 4 m/S 755 mmHg 88%
09:00 +18°C° 0.2 mm 4 m/S 755 mmHg 83%
10:00 +19°C° 0.2 mm 4 m/S 755 mmHg 79%
11:00 +19°C° 0.8 mm 4 m/S 755 mmHg 78%
12:00 +19°C° 0.8 mm 4 m/S 754 mmHg 77%
13:00 +20°C° 0.8 mm 4 m/S 754 mmHg 76%
14:00 +19°C° 0.9 mm 4 m/S 755 mmHg 78%
15:00 +19°C° 0.9 mm 3 m/S 755 mmHg 79%
16:00 +19°C° 0.9 mm 3 m/S 755 mmHg 80%
17:00 +18°C° 0.2 mm 3 m/S 755 mmHg 82%
18:00 +18°C° 0.2 mm 3 m/S 755 mmHg 83%
19:00 +17°C° 0.2 mm 3 m/S 755 mmHg 84%
20:00 +16°C° 0 mm 3 m/S 755 mmHg 86%
21:00 +13°C° 0 mm 3 m/S 756 mmHg 89%
22:00 +13°C° 0 mm 2 m/S 756 mmHg 91%
23:00 +12°C° 0 mm 3 m/S 756 mmHg 92%

Morgen, 2 August, Montag

Zeit Temperatur Niederschläge Wind Luftdruck Luftfeuchtigkeit
00:00 +11°C° 0 mm 3 m/S 756 mmHg 92%
01:00 +11°C° 0 mm 3 m/S 756 mmHg 93%
02:00 +10°C° 0 mm 3 m/S 757 mmHg 93%
03:00 +10°C° 0 mm 3 m/S 757 mmHg 94%
04:00 +10°C° 0 mm 3 m/S 757 mmHg 94%
05:00 +11°C° 0 mm 3 m/S 757 mmHg 92%
06:00 +12°C° 0 mm 4 m/S 757 mmHg 89%
07:00 +13°C° 0 mm 4 m/S 757 mmHg 86%
08:00 +14°C° 0.1 mm 5 m/S 758 mmHg 81%
09:00 +15°C° 0.1 mm 5 m/S 758 mmHg 76%
10:00 +17°C° 0.1 mm 5 m/S 758 mmHg 71%
11:00 +17°C° 0.3 mm 5 m/S 758 mmHg 71%
12:00 +17°C° 0.3 mm 5 m/S 758 mmHg 71%
13:00 +17°C° 0.3 mm 5 m/S 758 mmHg 71%
14:00 +17°C° 0.2 mm 5 m/S 758 mmHg 71%
15:00 +17°C° 0.2 mm 5 m/S 758 mmHg 71%
16:00 +18°C° 0.2 mm 4 m/S 759 mmHg 70%
17:00 +18°C° 0.1 mm 4 m/S 759 mmHg 73%
18:00 +17°C° 0.1 mm 3 m/S 759 mmHg 77%
19:00 +17°C° 0.1 mm 3 m/S 759 mmHg 80%
20:00 +15°C° 0 mm 2 m/S 759 mmHg 84%
21:00 +14°C° 0 mm 2 m/S 759 mmHg 87%
22:00 +13°C° 0 mm 2 m/S 760 mmHg 91%
23:00 +13°C° 0 mm 2 m/S 760 mmHg 91%

übermorgen, 3 August, Dienstag

Zeit Temperatur Niederschläge Wind Luftdruck Luftfeuchtigkeit
00:00 +12°C° 0 mm 1 m/S 760 mmHg 92%
01:00 +12°C° 0 mm 1 m/S 760 mmHg 92%
02:00 +12°C° 0 mm 1 m/S 760 mmHg 92%
03:00 +11°C° 0 mm 1 m/S 759 mmHg 92%
04:00 +11°C° 0 mm 1 m/S 759 mmHg 92%
05:00 +12°C° 0 mm 1 m/S 759 mmHg 89%
06:00 +13°C° 0 mm 1 m/S 759 mmHg 87%
07:00 +13°C° 0 mm 0 m/S 759 mmHg 84%
08:00 +15°C° 0 mm 1 m/S 759 mmHg 80%
09:00 +16°C° 0 mm 1 m/S 759 mmHg 76%
10:00 +18°C° 0 mm 1 m/S 759 mmHg 72%
11:00 +18°C° 0.2 mm 1 m/S 759 mmHg 73%
12:00 +17°C° 0.2 mm 2 m/S 759 mmHg 74%
13:00 +17°C° 0.2 mm 2 m/S 759 mmHg 74%
14:00 +17°C° 0.2 mm 2 m/S 759 mmHg 77%
15:00 +17°C° 0.2 mm 2 m/S 759 mmHg 79%
16:00 +16°C° 0.2 mm 1 m/S 759 mmHg 82%
17:00 +16°C° 0.1 mm 1 m/S 759 mmHg 83%
18:00 +16°C° 0.1 mm 1 m/S 759 mmHg 83%
19:00 +16°C° 0.1 mm 1 m/S 759 mmHg 84%
20:00 +15°C° 0 mm 1 m/S 759 mmHg 86%
21:00 +14°C° 0 mm 1 m/S 759 mmHg 88%
22:00 +13°C° 0 mm 1 m/S 760 mmHg 90%
23:00 +13°C° 0 mm 1 m/S 760 mmHg 90%

4 August, Mittwoch

Zeit Temperatur Niederschläge Wind Luftdruck Luftfeuchtigkeit
00:00 +12°C° 0 mm 1 m/S 760 mmHg 90%
01:00 +12°C° 0 mm 1 m/S 760 mmHg 91%
02:00 +12°C° 0 mm 1 m/S 760 mmHg 91%
03:00 +12°C° 0 mm 1 m/S 760 mmHg 91%
04:00 +11°C° 0 mm 1 m/S 759 mmHg 91%
05:00 +12°C° 0 mm 1 m/S 760 mmHg 89%
06:00 +13°C° 0 mm 1 m/S 760 mmHg 86%
07:00 +14°C° 0 mm 1 m/S 760 mmHg 84%
08:00 +15°C° 0 mm 2 m/S 760 mmHg 79%
09:00 +16°C° 0 mm 2 m/S 760 mmHg 73%
10:00 +18°C° 0 mm 2 m/S 760 mmHg 68%
11:00 +19°C° 0 mm 1 m/S 760 mmHg 66%
12:00 +20°C° 0 mm 1 m/S 760 mmHg 64%
13:00 +20°C° 0 mm 1 m/S 760 mmHg 61%
14:00 +21°C° 0 mm 1 m/S 760 mmHg 61%
15:00 +20°C° 0 mm 2 m/S 759 mmHg 62%
16:00 +20°C° 0 mm 2 m/S 759 mmHg 62%
17:00 +19°C° 0.1 mm 2 m/S 759 mmHg 67%
18:00 +18°C° 0.1 mm 2 m/S 760 mmHg 72%
19:00 +17°C° 0.1 mm 2 m/S 760 mmHg 77%
20:00 +16°C° 0 mm 2 m/S 760 mmHg 81%
21:00 +15°C° 0 mm 2 m/S 760 mmHg 85%
22:00 +14°C° 0 mm 1 m/S 760 mmHg 89%
23:00 +13°C° 0 mm 1 m/S 760 mmHg 89%

5 August, Donnerstag

Zeit Temperatur Niederschläge Wind Luftdruck Luftfeuchtigkeit
00:00 +13°C° 0 mm 1 m/S 760 mmHg 89%
01:00 +13°C° 0 mm 1 m/S 760 mmHg 90%
02:00 +12°C° 0 mm 1 m/S 759 mmHg 90%
03:00 +12°C° 0 mm 1 m/S 759 mmHg 90%
04:00 +11°C° 0 mm 0 m/S 759 mmHg 90%
05:00 +12°C° 0 mm 0 m/S 759 mmHg 87%
06:00 +13°C° 0 mm 0 m/S 759 mmHg 84%
07:00 +14°C° 0 mm 0 m/S 759 mmHg 81%
08:00 +16°C° 0 mm 1 m/S 758 mmHg 76%
09:00 +19°C° 0 mm 1 m/S 758 mmHg 70%
10:00 +21°C° 0 mm 1 m/S 758 mmHg 65%
11:00 +21°C° 0.1 mm 2 m/S 757 mmHg 62%
12:00 +21°C° 0.1 mm 2 m/S 757 mmHg 59%
13:00 +23°C° 0.1 mm 2 m/S 756 mmHg 56%
14:00 +23°C° 0.3 mm 2 m/S 756 mmHg 57%
15:00 +23°C° 0.3 mm 2 m/S 756 mmHg 58%
16:00 +23°C° 0.3 mm 2 m/S 756 mmHg 60%
17:00 +21°C° 0.3 mm 2 m/S 756 mmHg 65%
18:00 +20°C° 0.3 mm 2 m/S 755 mmHg 71%
19:00 +19°C° 0.3 mm 2 m/S 755 mmHg 76%
20:00 +18°C° 0 mm 2 m/S 755 mmHg 78%
21:00 +17°C° 0 mm 2 m/S 755 mmHg 79%
22:00 +16°C° 0 mm 2 m/S 755 mmHg 81%
23:00 +16°C° 0 mm 2 m/S 755 mmHg 82%

6 August, Freitag

Zeit Temperatur Niederschläge Wind Luftdruck Luftfeuchtigkeit
00:00 +16°C° 0 mm 2 m/S 755 mmHg 83%
01:00 +16°C° 0 mm 3 m/S 754 mmHg 84%
02:00 +16°C° 0.4 mm 3 m/S 754 mmHg 88%
03:00 +16°C° 0.4 mm 3 m/S 754 mmHg 91%
04:00 +14°C° 0.4 mm 3 m/S 754 mmHg 94%
05:00 +15°C° 0.5 mm 4 m/S 754 mmHg 93%
06:00 +15°C° 0.5 mm 4 m/S 754 mmHg 92%
07:00 +15°C° 0.5 mm 5 m/S 754 mmHg 91%
08:00 +16°C° 0 mm 5 m/S 754 mmHg 84%
09:00 +17°C° 0 mm 6 m/S 754 mmHg 77%
10:00 +19°C° 0 mm 6 m/S 754 mmHg 71%
11:00 +19°C° 0.2 mm 6 m/S 754 mmHg 71%
12:00 +19°C° 0.2 mm 6 m/S 754 mmHg 71%
13:00 +19°C° 0.2 mm 6 m/S 754 mmHg 72%
14:00 +19°C° 0.1 mm 6 m/S 754 mmHg 70%
15:00 +20°C° 0.1 mm 6 m/S 754 mmHg 68%
16:00 +20°C° 0.1 mm 5 m/S 754 mmHg 66%
17:00 +20°C° 0.1 mm 5 m/S 754 mmHg 69%
18:00 +19°C° 0.1 mm 4 m/S 754 mmHg 72%
19:00 +19°C° 0.1 mm 3 m/S 754 mmHg 74%
20:00 +18°C° 0 mm 3 m/S 754 mmHg 77%
21:00 +17°C° 0 mm 2 m/S 754 mmHg 80%
22:00 +16°C° 0 mm 2 m/S 755 mmHg 82%
23:00 +15°C° 0 mm 2 m/S 754 mmHg 84%
Mehr zeigen

Wir brauchen deine Erlaubnis

Meteoprog und unser Service Anbieter werden persönliche Daten aufbewahren, so wie Cookies, Geräte Bezeichnung oder ähnliche Technologien von deinem Gerät und Prozess, so wie Persönliche Daten Inhalte und Werbungen, genauso wie social Media und den Verkehr zu analysieren.

  • Aufbewahrung und/oder Zugang zu deiner Geräte Informationen.

    Cookies, Geräte Bezeichnung oder andere Informationen, können aufbewahrt oder Zugang zu deinem Gerät erhalten, für den Grund, der oben angegeben wird.

  • Personalisierte Werbung und Inhalte, Messungen, Einblick in das Publikum und Produkt Entwicklung.

    Werbungen und Inhalte können personalisiert werden, basierend auf ein Profil. Mehr Daten können besser personalisierte Werbungen und Inhalte hinzufügen. Werbung und Inhalte können gezeigt und gemessen werden. Einblicke über das Publikum, welche die Werbung gesehen haben und den Inhalt, können abgeleitet werden. So wie Daten können genutzt werden, um es zu verbessern oder die Benutzer Erfahrung zu verbessern das System und die Software.

Wenn du “Ich stimme zu” klickst, erlaubst du uns, die Cookies zu benutzen die Geräte Bezeichnung, den Web oder ähnliche Technologien zu benutzen. Deine Settings, können in deinem Gerät bei deinem Browser geändert werden.

Für den bestimmten Zweck, berechtigten Interessen beruhen darauf, mehr als auf den Inhalt. Du kannst mehr darüber in unseren Privaten und Cookie Politik lesen.